Temp
-8 -8 -8 -8 -8 -8 -8 -8 -8 -8 -8 -8 -10 -10 -10 -10 -11 -11 -11 -11 -11 -11 -11 -11 -11 -11 -11 -11 -11 -11 -11 -11 -10 -10 -10 -10 -10 -10 -10 -10 -10 -10 -10 -10 -10 -9 -9 -9 -9
-8 -8 -8 -8 -8 -8 -8 -8 -8 -9 -9 -9 -9 -10 -10 -11 -11 -11 -11 -11 -12 -12 -11 -11 -11 -11 -11 -11 -11 -11 -11 -11 -11 -11 -11 -11 -11 -11 -11 -10 -11 -11 -10 -10 -10 -10 -9 -9 -9
-8 -8 -8 -8 -8 -8 -8 -8 -8 -9 -10 -10 -10 -10 -11 -11 -11 -11 -11 -12 -12 -12 -12 -12 -12 -11 -11 -11 -11 -11 -11 -11 -11 -11 -11 -11 -11 -11 -11 -11 -11 -11 -10 -10 -10 -10 -10 -9 -9
-8 -8 -8 -8 -8 -8 -8 -9 -8 -9 -10 -11 -11 -11 -11 -12 -12 -12 -12 -12 -12 -12 -12 -12 -12 -12 -11 -11 -12 -12 -11 -11 -11 -12 -11 -11 -11 -11 -11 -11 -11 -11 -11 -10 -10 -10 -10 -9 -9
-8 -8 -9 -9 -8 -9 -9 -9 -10 -10 -11 -11 -11 -12 -12 -12 -12 -12 -12 -12 -12 -12 -12 -12 -12 -12 -12 -11 -12 -12 -11 -11 -11 -12 -12 -12 -12 -12 -11 -11 -11 -11 -11 -11 -10 -10 -10 -10 -9
-9 -9 -9 -9 -9 -9 -9 -10 -10 -10 -11 -11 -11 -12 -12 -12 -13 -13 -13 -13 -13 -13 -13 -13 -13 -12 -12 -12 -12 -12 -12 -11 -11 -11 -12 -12 -12 -12 -12 -11 -11 -11 -11 -11 -11 -10 -10 -10 -10
-9 -9 -9 -9 -9 -9 -9 -10 -10 -10 -11 -11 -12 -12 -12 -13 -13 -13 -13 -13 -13 -13 -13 -13 -13 -13 -12 -13 -12 -12 -13 -13 -12 -12 -12 -13 -12 -12 -12 -12 -11 -11 -11 -11 -11 -11 -11 -10 -10
-9 -9 -9 -9 -9 -9 -9 -10 -10 -10 -11 -12 -12 -12 -12 -13 -13 -13 -13 -14 -14 -14 -14 -14 -15 -14 -14 -14 -13 -13 -13 -13 -13 -12 -12 -12 -13 -13 -12 -12 -12 -12 -12 -12 -11 -11 -11 -11 -11
-10 -9 -9 -9 -9 -10 -9 -9 -10 -10 -11 -12 -12 -12 -13 -12 -12 -13 -15 -16 -16 -16 -17 -17 -16 -17 -16 -14 -15 -14 -14 -14 -13 -13 -13 -12 -13 -13 -13 -13 -12 -12 -12 -12 -11 -11 -11 -11 -11
-10 -10 -10 -10 -10 -10 -10 -10 -10 -11 -11 -11 -12 -13 -12 -12 -14 -15 -16 -17 -17 -17 -17 -17 -17 -17 -17 -16 -15 -15 -15 -14 -14 -13 -13 -13 -13 -13 -13 -13 -13 -13 -13 -12 -12 -12 -11 -11 -12
-10 -10 -10 -10 -10 -10 -10 -10 -11 -11 -12 -12 -13 -13 -12 -13 -15 -16 -17 -17 -17 -17 -17 -18 -17 -17 -17 -17 -16 -16 -16 -15 -15 -14 -14 -14 -13 -13 -13 -14 -13 -13 -12 -13 -12 -12 -12 -11 -12
-10 -10 -10 -10 -10 -10 -10 -10 -11 -11 -12 -12 -13 -13 -13 -13 -15 -16 -17 -17 -17 -17 -18 -18 -18 -17 -17 -17 -17 -16 -16 -16 -15 -15 -15 -14 -14 -13 -13 -13 -13 -13 -13 -12 -12 -12 -12 -12 -12
-10 -10 -10 -10 -10 -11 -10 -10 -10 -11 -12 -13 -13 -13 -13 -14 -16 -16 -17 -17 -17 -18 -18 -18 -18 -18 -18 -18 -17 -17 -17 -17 -16 -16 -15 -14 -14 -13 -13 -13 -13 -13 -13 -13 -12 -12 -12 -12 -12
-10 -11 -11 -10 -11 -11 -11 -11 -11 -11 -13 -13 -13 -13 -13 -14 -16 -17 -17 -18 -18 -18 -18 -18 -18 -18 -18 -18 -19 -18 -18 -17 -17 -16 -15 -14 -13 -13 -13 -13 -13 -13 -13 -13 -13 -12 -12 -12 -12
-11 -11 -11 -11 -11 -11 -11 -11 -11 -11 -13 -13 -13 -13 -14 -14 -16 -17 -18 -18 -18 -18 -18 -18 -18 -19 -19 -19 -19 -19 -19 -18 -17 -17 -15 -14 -14 -13 -13 -13 -13 -13 -13 -13 -12 -13 -13 -13 -13
-11 -11 -11 -11 -11 -11 -11 -11 -11 -11 -12 -13 -13 -14 -14 -14 -16 -17 -18 -18 -18 -18 -18 -18 -19 -20 -20 -20 -20 -20 -19 -19 -17 -16 -15 -14 -13 -13 -13 -13 -13 -13 -13 -13 -13 -13 -13 -13 -13
-11 -11 -11 -11 -11 -11 -10 -11 -11 -11 -12 -13 -13 -14 -14 -14 -15 -16 -18 -18 -19 -18 -18 -19 -19 -20 -20 -20 -20 -21 -20 -19 -18 -17 -15 -14 -14 -15 -13 -13 -13 -13 -13 -13 -13 -13 -13 -13 -12
-11 -11 -11 -11 -11 -11 -11 -11 -11 -12 -12 -13 -13 -14 -14 -14 -15 -16 -17 -18 -19 -19 -18 -19 -20 -20 -20 -20 -20 -20 -20 -19 -18 -17 -16 -15 -14 -15 -14 -13 -13 -13 -13 -13 -13 -13 -13 -13 -13
-11 -12 -12 -11 -11 -11 -11 -11 -11 -11 -12 -13 -14 -14 -14 -14 -15 -16 -17 -18 -19 -18 -18 -19 -20 -20 -20 -20 -20 -20 -19 -19 -18 -18 -17 -16 -15 -14 -14 -13 -13 -13 -13 -13 -13 -13 -13 -13 -13
-12 -12 -12 -12 -11 -11 -11 -11 -12 -12 -12 -13 -14 -14 -14 -14 -15 -15 -17 -18 -19 -18 -18 -19 -19 -20 -20 -20 -20 -20 -19 -18 -18 -18 -18 -16 -15 -14 -14 -14 -13 -13 -13 -13 -13 -14 -13 -13 -13
-12 -12 -12 -12 -11 -11 -11 -12 -12 -12 -12 -13 -14 -14 -15 -15 -15 -15 -17 -18 -19 -18 -18 -18 -19 -20 -20 -20 -19 -19 -19 -18 -18 -18 -18 -17 -15 -15 -15 -15 -14 -14 -13 -13 -14 -14 -13 -13 -13
-12 -12 -12 -12 -12 -11 -11 -11 -12 -12 -12 -13 -14 -14 -15 -15 -15 -15 -17 -18 -18 -17 -17 -18 -18 -19 -19 -19 -20 -19 -19 -18 -18 -18 -18 -16 -15 -14 -14 -14 -14 -14 -13 -13 -14 -14 -13 -13 -14
-12 -12 -12 -12 -12 -12 -12 -11 -12 -12 -12 -12 -13 -14 -15 -15 -15 -15 -16 -16 -17 -17 -17 -17 -17 -20 -19 -19 -19 -20 -19 -18 -18 -18 -17 -16 -14 -14 -14 -14 -14 -14 -14 -14 -14 -14 -14 -14 -14
-12 -12 -12 -12 -12 -12 -12 -12 -12 -12 -12 -12 -13 -14 -14 -15 -15 -15 -16 -16 -17 -17 -17 -17 -18 -18 -19 -19 -19 -19 -19 -18 -18 -18 -16 -16 -15 -14 -15 -15 -14 -14 -14 -14 -14 -14 -14 -14 -14
-13 -13 -12 -12 -12 -12 -12 -12 -12 -12 -12 -13 -13 -13 -14 -14 -15 -15 -16 -16 -17 -17 -17 -17 -18 -18 -18 -18 -18 -18 -18 -18 -18 -18 -17 -16 -16 -15 -14 -14 -14 -13 -14 -14 -14 -15 -14 -14 -14
-13 -13 -13 -12 -12 -12 -13 -13 -13 -13 -12 -12 -13 -13 -13 -14 -14 -15 -15 -16 -16 -16 -16 -17 -17 -18 -17 -16 -17 -17 -18 -18 -17 -17 -17 -16 -15 -14 -15 -14 -14 -14 -14 -14 -14 -14 -15 -14 -15
-13 -13 -13 -13 -13 -13 -13 -13 -13 -13 -12 -12 -13 -13 -13 -13 -14 -14 -15 -16 -16 -16 -16 -16 -17 -18 -17 -16 -16 -16 -17 -17 -17 -17 -17 -15 -14 -15 -15 -15 -14 -14 -14 -14 -14 -14 -14 -15 -14
-13 -13 -13 -13 -13 -13 -13 -13 -13 -13 -13 -13 -12 -13 -13 -13 -14 -14 -15 -15 -16 -16 -16 -16 -16 -17 -17 -16 -16 -16 -15 -16 -16 -16 -16 -15 -14 -14 -15 -14 -14 -14 -14 -14 -14 -14 -14 -14 -14
-14 -13 -13 -13 -13 -13 -13 -13 -13 -13 -13 -13 -12 -12 -12 -13 -13 -14 -14 -15 -15 -16 -16 -16 -16 -16 -16 -17 -16 -16 -16 -16 -16 -15 -15 -15 -15 -14 -15 -14 -14 -14 -14 -14 -14 -14 -14 -15 -14
-14 -14 -14 -14 -13 -13 -13 -13 -13 -13 -13 -13 -12 -12 -12 -12 -13 -13 -14 -14 -14 -15 -16 -16 -16 -16 -16 -16 -17 -17 -16 -16 -15 -15 -15 -15 -15 -15 -14 -14 -14 -14 -14 -14 -14 -14 -14 -15 -15
Height
5851 5849 5848 5849 5850 5847 5846 5845 5841 5839 5839 5838 5836 5834 5833 5831 5829 5827 5824 5822 5822 5821 5820 5819 5820 5819 5819 5818 5818 5819 5819 5821 5821 5822 5821 5822 5824 5824 5825 5826 5827 5828 5830 5831 5831 5833 5835 5836 5837
5851 5850 5849 5849 5848 5845 5845 5843 5840 5838 5835 5833 5832 5830 5829 5827 5825 5821 5819 5818 5816 5814 5814 5814 5813 5813 5812 5812 5813 5813 5814 5814 5816 5817 5816 5817 5819 5820 5821 5823 5823 5824 5826 5827 5829 5830 5832 5833 5835
5848 5848 5849 5848 5845 5844 5842 5839 5836 5836 5835 5830 5828 5826 5824 5823 5821 5816 5814 5811 5810 5809 5806 5807 5806 5806 5806 5805 5808 5807 5808 5806 5808 5809 5811 5813 5814 5816 5817 5818 5818 5820 5822 5823 5826 5827 5829 5831 5832
5848 5846 5846 5846 5843 5841 5840 5837 5833 5830 5831 5829 5824 5821 5821 5819 5812 5811 5809 5806 5802 5801 5800 5798 5798 5798 5799 5799 5799 5804 5802 5801 5800 5802 5804 5807 5809 5811 5814 5815 5815 5817 5819 5820 5822 5824 5826 5827 5829
5847 5846 5844 5844 5842 5839 5834 5834 5831 5829 5827 5823 5819 5818 5817 5810 5804 5803 5801 5798 5794 5792 5790 5789 5788 5788 5790 5792 5791 5793 5792 5791 5794 5794 5798 5801 5803 5806 5809 5811 5812 5814 5815 5817 5818 5820 5822 5824 5826
5845 5844 5843 5842 5840 5837 5834 5832 5829 5826 5824 5818 5814 5811 5811 5803 5797 5793 5790 5789 5783 5780 5779 5777 5777 5778 5779 5782 5783 5784 5779 5784 5786 5786 5789 5793 5797 5800 5803 5806 5808 5810 5811 5813 5815 5817 5819 5821 5822
5842 5841 5840 5840 5838 5835 5833 5830 5826 5822 5818 5814 5810 5804 5798 5794 5788 5783 5778 5775 5772 5767 5765 5763 5763 5764 5766 5769 5772 5774 5774 5777 5777 5780 5782 5784 5790 5794 5797 5800 5803 5805 5806 5810 5813 5814 5816 5817 5819
5840 5840 5838 5836 5835 5832 5830 5827 5822 5819 5815 5809 5805 5799 5793 5787 5777 5769 5762 5757 5754 5751 5749 5748 5748 5749 5752 5754 5759 5763 5766 5770 5769 5773 5776 5776 5781 5785 5790 5794 5797 5800 5801 5805 5809 5810 5812 5815 5816
5837 5838 5836 5834 5832 5829 5826 5823 5820 5815 5811 5806 5800 5793 5786 5776 5765 5752 5745 5741 5738 5737 5737 5736 5736 5738 5738 5741 5746 5750 5755 5759 5760 5765 5766 5770 5772 5776 5782 5788 5792 5795 5798 5802 5805 5806 5807 5810 5813
5834 5834 5834 5832 5829 5826 5823 5819 5816 5812 5807 5801 5796 5791 5781 5768 5757 5748 5740 5734 5731 5728 5727 5725 5726 5727 5728 5730 5733 5737 5743 5746 5753 5755 5760 5763 5768 5769 5773 5780 5786 5790 5793 5798 5801 5800 5803 5806 5810
5832 5831 5830 5828 5826 5824 5821 5817 5812 5807 5802 5796 5789 5780 5769 5759 5750 5743 5736 5730 5724 5720 5718 5716 5715 5716 5717 5719 5721 5725 5731 5735 5740 5747 5750 5755 5760 5763 5768 5773 5779 5784 5788 5792 5796 5798 5799 5802 5805
5829 5828 5827 5825 5823 5820 5817 5813 5809 5803 5798 5791 5784 5774 5765 5756 5747 5739 5730 5723 5718 5713 5710 5706 5705 5705 5706 5708 5711 5713 5719 5724 5730 5737 5741 5748 5753 5758 5762 5766 5773 5778 5782 5787 5789 5793 5796 5796 5800
5825 5825 5824 5822 5820 5817 5813 5809 5805 5800 5794 5787 5778 5769 5761 5751 5742 5734 5726 5719 5712 5706 5702 5699 5696 5696 5696 5696 5699 5701 5705 5713 5719 5726 5733 5741 5747 5752 5756 5761 5766 5771 5776 5781 5785 5790 5790 5793 5795
5822 5821 5820 5818 5816 5813 5810 5806 5802 5797 5791 5784 5773 5765 5756 5746 5737 5729 5722 5714 5707 5700 5695 5691 5688 5686 5685 5685 5687 5689 5692 5700 5708 5715 5723 5732 5738 5744 5750 5755 5760 5766 5771 5776 5779 5780 5786 5789 5791
5820 5818 5817 5815 5813 5810 5808 5804 5799 5793 5786 5778 5771 5763 5753 5743 5731 5723 5716 5709 5701 5693 5686 5679 5674 5671 5669 5669 5672 5676 5679 5685 5695 5705 5713 5722 5729 5735 5741 5748 5753 5759 5764 5769 5773 5779 5782 5783 5787
5817 5816 5814 5811 5809 5808 5806 5802 5796 5789 5783 5775 5768 5760 5752 5741 5728 5719 5710 5702 5694 5686 5677 5668 5663 5660 5657 5656 5657 5661 5665 5671 5681 5691 5702 5713 5721 5727 5734 5741 5747 5754 5758 5764 5769 5773 5776 5780 5783
5813 5812 5811 5809 5807 5805 5802 5797 5793 5786 5779 5772 5765 5757 5749 5738 5727 5716 5706 5697 5688 5679 5669 5659 5655 5651 5649 5648 5648 5650 5651 5658 5670 5683 5692 5703 5713 5719 5727 5736 5741 5747 5753 5758 5763 5768 5771 5774 5778
5810 5809 5807 5806 5804 5801 5798 5794 5789 5783 5777 5770 5762 5754 5745 5736 5724 5712 5699 5688 5679 5672 5663 5654 5649 5647 5644 5643 5643 5644 5647 5655 5665 5676 5683 5693 5705 5714 5721 5730 5735 5742 5748 5753 5758 5763 5765 5769 5774
5807 5805 5804 5803 5800 5798 5795 5791 5787 5781 5774 5767 5759 5752 5742 5732 5721 5708 5694 5682 5674 5668 5660 5651 5646 5643 5642 5642 5642 5644 5647 5655 5663 5670 5676 5685 5695 5705 5715 5722 5729 5736 5742 5748 5753 5757 5761 5765 5769
5803 5802 5800 5799 5797 5795 5792 5788 5784 5778 5771 5764 5756 5749 5739 5730 5721 5707 5692 5680 5672 5665 5658 5651 5645 5641 5640 5640 5642 5644 5647 5651 5657 5664 5671 5681 5691 5701 5709 5718 5726 5732 5737 5742 5748 5752 5757 5760 5763
5798 5798 5797 5796 5794 5792 5790 5786 5781 5777 5769 5761 5753 5748 5738 5729 5718 5704 5688 5677 5668 5663 5657 5651 5645 5640 5637 5637 5639 5642 5645 5649 5653 5659 5668 5678 5688 5698 5707 5712 5722 5728 5732 5738 5743 5748 5751 5755 5758
5795 5794 5793 5792 5791 5788 5786 5784 5779 5775 5768 5760 5754 5746 5738 5729 5717 5704 5688 5676 5668 5664 5658 5650 5644 5640 5636 5634 5634 5637 5642 5646 5651 5656 5666 5677 5688 5697 5702 5710 5718 5724 5728 5734 5739 5742 5747 5751 5754
5791 5790 5789 5788 5787 5785 5782 5780 5776 5772 5766 5759 5751 5745 5737 5728 5718 5707 5691 5681 5674 5667 5659 5650 5643 5638 5633 5631 5631 5633 5637 5644 5649 5655 5665 5671 5685 5693 5700 5707 5714 5721 5726 5730 5733 5738 5744 5746 5748
5787 5786 5785 5784 5783 5782 5779 5777 5773 5769 5763 5757 5750 5745 5738 5729 5719 5709 5697 5688 5679 5671 5662 5653 5644 5636 5631 5627 5629 5631 5634 5641 5647 5652 5661 5670 5677 5688 5694 5702 5709 5716 5723 5728 5730 5734 5739 5740 5744
5783 5782 5781 5781 5780 5778 5775 5774 5770 5766 5761 5757 5751 5745 5739 5730 5721 5713 5703 5694 5685 5676 5666 5657 5647 5638 5632 5630 5630 5632 5637 5643 5648 5655 5662 5669 5676 5685 5694 5700 5704 5712 5717 5722 5727 5729 5733 5737 5739
5779 5779 5777 5775 5776 5776 5772 5771 5768 5765 5761 5756 5751 5745 5739 5731 5724 5715 5707 5699 5690 5681 5671 5662 5653 5642 5636 5637 5639 5641 5644 5650 5654 5658 5663 5669 5678 5685 5691 5697 5702 5708 5715 5719 5722 5727 5731 5734 5736
5775 5775 5774 5771 5771 5771 5770 5769 5766 5763 5760 5756 5751 5746 5740 5734 5727 5718 5710 5702 5695 5687 5678 5669 5662 5654 5646 5645 5646 5647 5648 5653 5658 5664 5667 5671 5678 5684 5689 5694 5700 5705 5712 5716 5720 5723 5727 5730 5732
5770 5771 5770 5768 5767 5766 5766 5765 5764 5762 5758 5755 5751 5747 5741 5736 5729 5721 5714 5707 5699 5693 5685 5677 5669 5663 5657 5652 5650 5651 5653 5657 5661 5665 5668 5672 5676 5681 5686 5690 5696 5702 5707 5712 5717 5721 5723 5726 5728
5766 5765 5765 5764 5763 5762 5763 5763 5762 5759 5756 5754 5751 5747 5742 5737 5731 5724 5718 5711 5705 5697 5691 5685 5677 5671 5666 5661 5658 5657 5657 5659 5662 5666 5669 5671 5673 5677 5683 5688 5695 5700 5705 5710 5714 5717 5720 5721 5722
5759 5760 5759 5759 5760 5758 5759 5761 5758 5757 5754 5752 5750 5747 5743 5738 5733 5727 5722 5716 5710 5704 5696 5691 5686 5681 5675 5671 5668 5664 5663 5664 5666 5669 5670 5670 5672 5676 5681 5686 5691 5697 5703 5707 5711 5713 5715 5716 5716
Wind_Speed
9 9 13 11 18 21 15 18 16 14 14 14 15 19 21 24 27 31 31 30 28 27 26 26 23 25 26 25 23 24 24 24 24 27 28 27 27 25 24 23 21 21 19 18 16 16 17 16 14
9 11 12 11 18 22 19 14 18 15 17 18 17 20 24 27 29 33 36 35 34 34 31 29 28 26 28 28 27 26 28 27 28 29 31 31 30 29 26 24 23 22 22 21 19 18 18 17 15
8 9 11 15 16 23 19 21 22 17 14 21 22 24 27 30 31 34 37 38 36 36 38 35 32 28 29 31 25 31 28 30 30 31 33 34 33 31 28 28 27 24 23 23 22 22 20 18 17
10 9 10 13 16 19 18 19 25 25 21 19 27 30 31 30 34 35 36 40 42 42 41 42 40 36 32 32 34 22 30 33 30 33 34 36 35 34 31 30 29 26 24 25 24 23 23 20 19
11 13 11 12 16 16 20 20 21 23 23 27 30 30 29 33 37 36 38 42 45 45 45 45 45 44 39 35 37 34 39 37 32 35 34 36 37 36 33 34 31 27 26 26 25 25 25 23 21
12 13 12 12 15 15 19 19 23 26 24 31 33 35 34 38 43 45 44 42 44 46 46 47 48 48 47 42 41 39 37 27 37 39 38 37 37 36 37 37 32 30 28 27 26 25 22 23 21
14 14 15 17 16 17 21 20 25 29 30 32 36 41 45 46 50 51 50 49 47 49 49 49 50 49 52 47 47 45 48 41 30 34 36 40 38 39 38 37 36 32 29 27 25 22 22 23 21
14 17 18 20 18 19 25 22 29 30 30 35 40 43 46 50 55 58 57 52 51 51 51 50 47 50 48 51 51 48 46 44 46 26 39 34 42 40 40 39 37 35 28 25 26 24 25 21 23
16 18 18 20 23 23 25 27 29 31 33 35 39 43 49 54 59 55 45 42 42 42 40 40 41 39 43 47 51 55 51 50 54 39 34 43 44 40 39 40 37 35 30 26 22 28 27 25 24
16 19 20 22 25 24 25 30 31 32 34 38 40 44 47 52 46 37 38 36 33 34 34 35 35 38 38 41 49 55 49 50 48 28 24 35 42 42 46 41 39 36 33 28 25 19 24 26 23
16 17 19 22 25 24 26 27 30 32 36 39 41 47 50 50 44 36 37 37 37 37 37 35 33 35 36 38 42 43 56 54 49 56 41 24 30 27 41 42 39 37 35 32 31 26 37 29 24
16 17 18 22 25 25 27 28 29 33 35 37 41 46 47 47 40 36 35 34 37 34 31 32 32 33 36 38 40 44 46 54 56 58 48 44 32 41 28 43 41 38 38 34 37 31 28 27 31
15 17 18 20 24 25 27 28 30 32 34 37 41 45 46 45 39 36 34 32 32 30 30 29 29 30 35 38 42 45 49 46 59 53 52 48 42 37 30 34 43 42 38 36 34 38 26 22 27
14 17 18 20 23 25 26 27 30 31 34 36 40 44 46 46 39 36 35 34 34 32 32 35 36 38 40 41 42 44 47 51 51 60 55 51 45 46 40 38 34 41 40 38 38 38 36 27 24
15 17 19 21 22 25 24 26 29 31 35 37 38 42 47 48 42 39 37 37 37 37 38 33 31 33 36 41 43 46 48 49 53 54 58 54 56 51 30 38 29 37 42 40 38 36 34 30 29
16 17 19 20 21 24 22 25 29 32 36 37 39 42 45 49 43 40 40 40 41 39 40 33 27 26 25 26 32 40 50 50 56 53 64 61 58 57 37 34 32 40 35 39 37 35 33 32 28
16 15 19 20 20 23 24 28 31 35 38 39 40 43 45 49 49 43 40 41 40 37 40 32 24 22 18 18 21 29 35 43 48 47 61 64 57 59 45 32 37 38 39 38 37 35 34 32 34
16 16 18 19 20 22 25 30 33 35 38 38 40 43 46 49 50 49 45 40 37 34 37 28 20 16 11 12 13 17 23 31 36 41 46 60 54 52 55 37 35 34 29 36 37 31 33 31 36
15 15 17 19 20 21 24 28 32 36 38 39 41 44 47 49 53 53 47 42 36 29 31 23 15 13 12 8 8 12 21 25 24 33 37 47 52 51 53 43 30 30 32 31 40 45 29 25 24
15 16 17 18 19 20 23 26 30 34 38 39 41 45 47 49 54 59 47 42 36 26 28 21 14 7 13 15 12 10 16 23 26 30 36 41 51 48 47 46 29 32 31 29 40 36 32 32 27
17 16 18 17 19 20 21 24 28 31 37 39 41 44 47 50 55 62 53 44 36 23 26 19 17 7 4 11 16 16 17 21 24 33 33 37 42 36 32 34 33 36 31 29 35 32 32 28 25
16 17 19 19 19 21 22 22 27 29 34 37 39 42 46 50 56 63 54 44 32 25 28 24 13 17 11 9 11 15 22 22 23 30 31 29 27 33 28 32 32 32 33 34 37 35 29 26 26
16 17 18 18 19 21 22 24 26 29 33 36 39 42 45 50 55 60 48 40 34 33 32 26 21 14 18 9 16 18 19 26 25 31 36 28 41 39 34 33 34 49 33 35 37 37 29 23 22
16 17 17 17 18 19 21 23 25 27 31 36 37 40 43 47 52 57 41 39 38 39 36 27 26 28 15 3 9 14 20 28 30 37 44 38 37 39 24 22 26 33 32 37 39 34 27 24 22
16 17 17 16 15 18 18 19 23 23 27 32 34 38 42 44 48 53 40 37 37 39 40 31 27 33 21 12 17 12 7 17 24 28 36 40 39 35 30 33 29 31 33 32 34 26 23 23 21
15 16 18 18 15 15 17 17 18 19 23 28 32 36 40 41 43 49 48 38 35 40 43 35 30 38 25 24 17 5 19 14 16 15 31 25 38 35 30 33 34 32 34 30 31 26 25 24 22
16 16 17 19 18 15 15 15 17 17 20 24 29 33 35 37 39 44 49 36 35 37 42 39 31 39 27 22 8 6 8 12 14 13 18 30 33 39 35 34 30 29 34 36 32 29 24 21 23
18 18 17 18 18 15 14 14 14 15 17 19 24 29 32 33 36 38 44 47 32 35 37 41 36 29 40 29 17 12 6 4 5 8 13 20 26 36 34 24 31 29 27 32 33 29 24 24 23
22 22 20 19 17 17 14 13 10 11 13 15 19 24 28 30 32 34 39 44 45 31 32 35 39 35 29 36 35 22 21 16 11 9 11 10 16 23 27 23 27 27 20 22 22 21 21 24 27
23 25 24 24 21 19 17 11 11 10 10 11 15 20 23 27 28 31 33 36 43 44 31 28 30 33 35 29 25 32 28 27 20 15 17 18 13 15 18 19 23 25 24 24 24 25 21 19 23
Wind_Direction
343 350 352 350 349 347 355 345 341 351 345 343 327 314 309 304 305 303 303 301 298 292 287 283 274 265 264 263 259 256 254 246 244 240 229 224 220 217 222 231 226 225 229 227 224 223 224 226 229
317 329 339 342 340 343 340 336 341 344 333 328 323 310 310 309 308 304 301 298 295 288 285 281 277 268 262 260 259 256 251 243 240 237 230 225 221 220 219 226 230 223 224 226 223 221 221 226 229
298 313 321 332 325 341 336 337 340 336 330 317 312 310 305 307 303 297 296 296 293 288 285 280 274 268 262 257 271 257 252 240 236 235 232 227 224 221 216 219 229 225 220 223 222 220 221 228 232
292 297 307 324 317 331 331 334 333 332 338 315 305 309 311 306 300 297 294 289 288 286 282 277 272 265 259 257 251 266 264 257 239 231 231 228 224 223 220 222 227 228 220 222 221 222 226 233 233
291 297 296 315 317 325 322 330 324 320 330 316 314 310 309 304 302 302 298 291 287 283 279 274 268 266 258 250 249 242 248 244 238 227 228 231 227 224 220 225 227 231 224 225 224 225 228 232 233
282 286 295 306 312 319 315 322 323 325 322 321 315 313 309 307 305 303 298 290 285 283 279 275 269 259 255 247 243 242 240 262 246 230 223 228 231 226 222 226 229 231 230 227 229 230 233 237 234
279 277 289 305 310 313 319 317 321 328 328 320 317 318 319 310 305 301 297 293 286 280 275 273 269 262 254 246 238 240 242 246 234 251 225 220 229 227 225 225 227 231 232 228 233 230 235 234 234
276 276 289 303 308 308 318 318 324 329 320 321 319 316 315 313 309 306 302 290 281 276 273 273 271 266 257 250 240 236 238 242 258 249 238 228 220 225 224 225 226 232 235 225 234 229 233 233 231
279 269 284 294 303 308 316 321 323 326 320 320 320 323 321 322 318 318 317 305 293 285 280 275 271 264 261 250 238 237 232 231 237 255 257 234 223 219 222 225 225 227 228 229 237 234 229 233 230
286 279 281 295 301 303 314 318 322 322 323 325 326 327 330 327 329 331 328 322 310 300 289 283 272 262 256 254 242 237 235 231 227 219 217 233 221 226 216 220 222 225 224 220 228 219 226 232 227
286 286 289 295 299 305 308 312 318 322 324 326 333 337 344 338 333 335 327 317 309 301 292 284 271 261 256 251 253 248 236 234 232 234 238 243 229 224 225 215 221 223 226 222 229 250 238 234 233
288 290 295 300 294 302 306 312 319 325 326 333 338 346 349 344 334 334 333 325 316 312 304 293 279 263 257 253 250 253 248 240 231 231 241 236 239 227 223 223 217 223 226 225 228 227 234 235 233
292 293 302 305 294 298 305 314 323 325 330 338 344 351 352 350 337 333 337 337 331 321 308 295 286 274 263 257 253 249 247 243 236 234 231 232 233 221 219 219 220 220 227 229 229 227 233 223 230
292 293 299 305 293 297 306 314 323 327 336 343 351 352 352 350 342 331 332 334 335 335 316 292 283 271 264 258 254 253 249 240 239 231 229 224 224 220 218 216 221 217 224 226 225 238 239 241 241
293 290 295 299 295 295 306 319 327 331 339 346 353 355 355 352 342 331 323 324 326 327 329 312 296 286 273 259 253 246 248 244 232 235 227 223 224 217 212 208 223 221 220 226 231 235 240 247 259
296 295 295 298 296 299 309 321 332 332 337 345 351 355 356 356 352 330 322 322 325 326 328 315 299 292 280 265 252 246 245 242 227 226 225 222 219 223 205 207 209 222 220 222 228 235 243 245 247
295 292 292 293 291 302 317 325 329 334 335 342 348 352 354 356 358 349 329 322 323 327 332 323 304 295 286 276 268 255 240 226 215 222 221 221 223 233 220 211 213 218 221 226 226 233 239 244 248
295 291 291 292 294 305 315 322 329 330 332 339 348 352 354 356 357 354 345 336 333 334 338 336 313 291 309 305 280 243 217 204 208 217 220 223 222 222 231 216 206 212 219 222 223 231 235 243 248
293 284 287 294 303 310 316 321 326 330 330 337 348 352 353 358 357 357 348 342 340 340 346 359 331 285 290 308 304 233 204 202 210 216 212 218 222 222 225 223 207 217 222 228 227 229 240 240 236
293 285 285 293 306 315 321 322 328 331 331 337 345 350 357 360 357 357 352 344 348 348 350 350 354 341 266 269 268 254 211 211 209 209 209 210 217 223 228 224 212 222 221 231 232 229 236 240 241
289 284 280 288 301 313 320 323 325 332 332 338 346 351 0 2 0 359 356 354 356 358 354 346 346 329 360 248 241 238 217 206 208 202 208 205 212 215 218 234 237 237 224 226 222 221 229 229 231
286 286 281 284 293 304 315 324 323 332 333 340 341 349 357 2 4 3 2 7 14 13 359 354 327 333 336 256 226 217 222 202 208 197 196 182 194 212 217 218 222 224 223 224 220 218 221 232 237
288 284 286 288 291 300 312 322 326 330 335 340 340 346 355 1 5 8 13 24 28 15 8 6 358 330 316 299 222 209 203 203 202 194 190 177 191 187 194 205 221 225 232 210 227 221 228 229 239
290 288 286 287 292 296 308 318 326 334 340 339 341 346 353 359 5 12 18 22 23 19 14 14 6 28 25 295 216 212 198 197 201 190 170 185 207 192 186 195 208 217 239 231 228 219 225 232 239
285 290 287 290 288 294 303 315 328 338 340 339 342 346 351 2 4 12 18 24 21 20 17 21 13 31 43 81 78 73 150 196 199 198 195 189 194 197 194 200 218 235 234 222 223 225 224 230 244
286 290 290 291 288 289 297 311 324 332 336 340 343 349 353 2 5 10 20 19 21 23 22 25 25 38 56 49 45 129 156 141 173 200 203 188 193 201 207 208 212 219 227 214 216 219 240 246 254
277 288 293 292 291 289 288 298 314 329 335 343 349 351 358 2 8 9 16 21 21 25 25 26 37 39 69 74 54 22 75 121 145 178 206 197 204 206 217 214 213 221 228 224 217 215 224 234 244
273 282 291 293 292 288 279 290 309 327 335 348 351 352 1 4 9 9 11 22 19 25 28 30 35 42 50 77 76 84 89 190 185 190 198 212 208 203 207 223 222 220 221 231 228 227 230 233 248
265 270 279 289 291 289 279 282 295 316 331 346 353 358 2 6 8 10 11 16 26 22 27 32 36 41 43 46 72 102 92 97 110 141 157 187 195 205 209 205 208 215 214 223 231 234 243 249 249
260 266 271 274 281 285 283 266 280 291 321 348 4 1 6 8 8 9 12 16 18 27 27 30 36 42 47 49 46 54 63 65 93 85 86 114 123 176 190 191 197 203 218 223 236 243 244 254 257